Location: Cantaing
(50.1487°N, 3.1675°E)
Time: 14:32:22
(UTC+00:00)

Cosmos 2082 Rocket - Visible Passes

Search period start: 11 April 2026 00:00
Search period end: 21 April 2026 00:00
Orbit: 830 x 854 km, 71.0° (Epoch: 11 April)

Date Brightness Start Highest point End Pass type
(mag) Time Alt. Az. Time Alt. Az. Time Alt. Az.
11 Apr 4.0 01:57:42 16° SE 02:00:33 23° ESE 02:04:56 10° NE visible
11 Apr 2.3 03:39:32 17° SW 03:44:04 70° WNW 03:49:49 10° NNE visible
12 Apr 4.0 01:43:20 17° SE 01:45:39 22° E 01:49:56 10° NE visible
12 Apr 2.2 03:25:10 21° SW 03:29:09 72° WNW 03:34:54 10° NNE visible
13 Apr 4.0 01:28:56 18° SE 01:30:47 21° E 01:34:57 10° NE visible
13 Apr 2.2 03:10:46 25° SW 03:14:14 75° WNW 03:19:59 10° NNE visible
14 Apr 4.0 01:14:29 19° ESE 01:15:54 20° E 01:19:57 10° NE visible
14 Apr 2.2 02:56:18 29° SW 02:59:19 78° WNW 03:05:05 10° NNE visible
15 Apr 4.0 00:59:59 18° ESE 01:01:01 19° E 01:04:58 10° NE visible
15 Apr 2.2 02:41:48 34° SW 02:44:23 81° WNW 02:50:10 10° NNE visible
16 Apr 4.1 00:45:27 18° ESE 00:46:09 19° E 00:49:57 10° ENE visible
16 Apr 2.2 02:27:16 40° SW 02:29:28 84° WNW 02:35:15 10° NNE visible
16 Apr 3.8 04:10:02 10° W 04:14:26 22° NW 04:18:50 10° NNE visible
17 Apr 4.1 00:30:54 18° ESE 00:31:16 18° E 00:34:56 10° ENE visible
17 Apr 2.1 02:12:42 45° SSW 02:14:33 87° WNW 02:20:20 10° NNE visible
17 Apr 3.8 03:55:01 10° W 03:59:28 23° NW 04:03:56 10° NNE visible
18 Apr 4.1 00:16:18 17° E 00:16:24 17° E 00:19:54 10° ENE visible
18 Apr 2.1 01:58:06 51° SSW 01:59:39 89° ESE 02:05:25 10° NNE visible
18 Apr 3.8 03:40:00 10° W 03:44:31 23° NW 03:49:03 10° NNE visible
19 Apr 4.2 00:01:40 16° E 00:01:40 16° E 00:04:53 10° ENE visible
19 Apr 2.1 01:43:28 57° SSW 01:44:44 86° ESE 01:50:30 10° NNE visible
19 Apr 3.7 03:25:17 11° W 03:29:33 24° NW 03:34:09 10° NNE visible
19 Apr 4.2 23:47:00 15° E 23:47:00 15° E 23:49:50 10° ENE visible
20 Apr 2.1 01:28:49 62° SSW 01:29:50 83° ESE 01:35:35 10° NNE visible
20 Apr 3.7 03:10:37 13° W 03:14:36 25° NW 03:19:15 10° NNE visible
20 Apr 4.3 23:32:19 14° E 23:32:19 14° E 23:34:46 10° ENE visible
